START_TIME,STEP,MOV.,M35,t_acc.,PL05,t_acc.,PL06,t_acc.,PL07,t_acc.
1979-07-20 06:00:23.690 ,0,1,0.,4.8,6.,4.8,4.,4.8,1.,4.8
1979-07-20 06:00:28.490 ,0,1,0.,4.8,6.,4.8,3.,4.8,1.,4.8
1979-07-20 06:00:33.290 ,0,1,0.,4.8,5.,4.8,4.,4.8,3.,4.8
1979-07-20 06:00:38.090 ,0,1,0.,4.8,5.,4.8,2.,4.8,3.,4.8
1979-07-20 06:00:42.890 ,0,1,0.,4.8,4.,4.8,4.,4.8,0.,4.8
1979-07-20 06:00:47.690 ,4,1,0.,4.8,8.,4.8,3.,4.8,0.,4.8
1979-07-20 06:00:52.490 ,4,1,0.,4.8,5.,4.8,4.,4.8,4.,4.8
1979-07-20 06:00:57.290 ,4,1,0.,4.8,6.,4.8,3.,4.8,1.,4.8
1979-07-20 06:01:02.090 ,4,1,0.,4.8,4.,4.8,7.,4.8,4.,4.8
1979-07-20 06:01:06.890 ,4,1,0.,4.8,7.,4.8,2.,4.8,3.,4.8
1979-07-20 06:01:11.690 ,7,1,0.,4.8,7.,4.8,4.,4.8,0.,4.8
1979-07-20 06:01:16.490 ,7,1,0.,4.8,4.,4.8,5.,4.8,1.,4.8
1979-07-20 06:01:21.290 ,7,1,0.,4.8,4.,4.8,3.,4.8,5.,4.8
1979-07-20 06:01:26.090 ,7,1,0.,4.8,4.,4.8,0.,4.8,0.,4.8
1979-07-20 06:01:30.890 ,7,1,0.,4.8,0.,4.8,0.,4.8,0.,4.8
1979-07-20 06:01:35.690 ,3,1,0.,4.8,2.,4.8,0.,4.8,0.,4.8
1979-07-20 06:01:40.490 ,3,1,0.,4.8,3.,4.8,4.,4.8,2.,4.8
1979-07-20 06:01:45.290 ,3,1,0.,4.8,2.,4.8,1.,4.8,1.,4.8
1979-07-20 06:01:50.090 ,3,1,0.,4.8,3.,4.8,4.,4.8,4.,4.8
1979-07-20 06:01:54.890 ,3,1,0.,4.8,2.,4.8,3.,4.8,2.,4.8
1979-07-20 06:01:59.690 ,0,1,0.,4.8,8.,4.8,3.,4.8,1.,4.8
1979-07-20 06:02:04.490 ,0,1,0.,4.8,7.,4.8,2.,4.8,4.,4.8
1979-07-20 06:02:09.290 ,0,1,0.,4.8,4.,4.8,3.,4.8,2.,4.8
1979-07-20 06:02:14.090 ,0,1,0.,4.8,5.,4.8,6.,4.8,2.,4.8
1979-07-20 06:02:18.890 ,0,1,0.,4.8,7.,4.8,5.,4.8,4.,4.8
1979-07-20 06:02:23.690 ,4,1,0.,4.8,9.,4.8,7.,4.8,3.,4.8
1979-07-20 06:02:28.490 ,4,1,0.,4.8,4.,4.8,3.,4.8,1.,4.8
1979-07-20 06:02:33.290 ,4,1,0.,4.8,11.,4.8,1.,4.8,2.,4.8
1979-07-20 06:02:38.090 ,4,1,0.,4.8,3.,4.8,1.,4.8,1.,4.8
1979-07-20 06:02:42.890 ,4,1,0.,4.8,5.,4.8,1.,4.8,1.,4.8
1979-07-20 06:02:47.690 ,7,1,0.,4.8,3.,4.8,5.,4.8,2.,4.8
1979-07-20 06:02:52.490 ,7,1,0.,4.8,4.,4.8,4.,4.8,2.,4.8
1979-07-20 06:02:57.290 ,7,1,0.,4.8,4.,4.8,2.,4.8,0.,4.8
1979-07-20 06:03:02.090 ,7,1,0.,4.8,8.,4.8,1.,4.8,1.,4.8
1979-07-20 06:03:06.890 ,7,1,0.,4.8,2.,4.8,0.,4.8,0.,4.8
1979-07-20 06:03:11.690 ,3,1,0.,4.8,3.,4.8,0.,4.8,1.,4.8
1979-07-20 06:03:16.490 ,3,1,0.,4.8,6.,4.8,4.,4.8,4.,4.8
1979-07-20 06:03:21.290 ,3,1,0.,4.8,14.,4.8,3.,4.8,3.,4.8
1979-07-20 06:03:26.090 ,3,1,0.,4.8,8.,4.8,4.,4.8,8.,4.8
1979-07-20 06:03:30.890 ,3,1,0.,4.8,4.,4.8,3.,4.8,4.,4.8
1979-07-20 06:03:35.690 ,0,1,0.,4.8,3.,4.8,4.,4.8,2.,4.8
1979-07-20 06:03:40.490 ,0,1,0.,4.8,8.,4.8,5.,4.8,3.,4.8
1979-07-20 06:03:45.290 ,0,1,0.,4.8,6.,4.8,5.,4.8,0.,4.8
1979-07-20 06:03:50.090 ,0,1,0.,4.8,6.,4.8,2.,4.8,3.,4.8
1979-07-20 06:03:54.890 ,0,1,0.,4.8,5.,4.8,4.,4.8,4.,4.8
1979-07-20 06:03:59.690 ,4,1,0.,4.8,7.,4.8,4.,4.8,4.,4.8
1979-07-20 06:04:04.490 ,4,1,0.,4.8,5.,4.8,2.,4.8,8.,4.8
1979-07-20 06:04:09.290 ,4,1,0.,4.8,6.,4.8,1.,4.8,1.,4.8
1979-07-20 06:04:14.090 ,4,1,0.,4.8,10.,4.8,4.,4.8,1.,4.8
1979-07-20 06:04:18.890 ,4,1,0.,4.8,7.,4.8,4.,4.8,4.,4.8
1979-07-20 06:04:23.690 ,7,1,0.,4.8,7.,4.8,3.,4.8,2.,4.8
1979-07-20 06:04:28.490 ,7,1,0.,4.8,6.,4.8,1.,4.8,2.,4.8
1979-07-20 06:04:33.290 ,7,1,0.,4.8,2.,4.8,7.,4.8,2.,4.8
1979-07-20 06:04:38.090 ,7,1,0.,4.8,2.,4.8,0.,4.8,3.,4.8
1979-07-20 06:04:42.890 ,7,1,0.,4.8,0.,4.8,0.,4.8,0.,4.8
1979-07-20 06:04:47.690 ,3,1,0.,4.8,1.,4.8,1.,4.8,1.,4.8
1979-07-20 06:04:52.490 ,3,1,0.,4.8,6.,4.8,4.,4.8,3.,4.8
1979-07-20 06:04:57.290 ,3,1,0.,4.8,4.,4.8,4.,4.8,1.,4.8
1979-07-20 06:05:02.090 ,3,1,0.,4.8,5.,4.8,6.,4.8,5.,4.8
1979-07-20 06:05:06.890 ,3,1,0.,4.8,8.,4.8,3.,4.8,6.,4.8
1979-07-20 06:05:11.690 ,0,1,0.,4.8,9.,4.8,3.,4.8,2.,4.8
1979-07-20 06:05:16.490 ,0,1,0.,4.8,5.,4.8,3.,4.8,0.,4.8
1979-07-20 06:05:21.290 ,0,1,0.,4.8,3.,4.8,4.,4.8,3.,4.8
1979-07-20 06:05:26.090 ,0,1,0.,4.8,4.,4.8,3.,4.8,3.,4.8
1979-07-20 06:05:30.890 ,0,1,0.,4.8,5.,4.8,4.,4.8,1.,4.8
1979-07-20 06:05:35.690 ,0,0,0.,4.8,1.,4.8,2.,4.8,1.,4.8
1979-07-20 06:05:40.490 ,0,0,0.,4.8,6.,4.8,1.,4.8,5.,4.8
1979-07-20 06:05:45.290 ,0,0,0.,4.8,4.,4.8,3.,4.8,3.,4.8
1979-07-20 06:05:50.090 ,0,0,0.,4.8,8.,4.8,2.,4.8,1.,4.8
1979-07-20 06:05:54.890 ,0,0,0.,4.8,2.,4.8,4.,4.8,1.,4.8
1979-07-20 06:05:59.690 ,0,0,0.,4.8,7.,4.8,3.,4.8,3.,4.8
1979-07-20 06:06:04.490 ,0,0,0.,4.8,5.,4.8,4.,4.8,2.,4.8
1979-07-20 06:06:09.290 ,0,0,0.,4.8,4.,4.8,3.,4.8,3.,4.8
1979-07-20 06:06:14.090 ,0,0,0.,4.8,4.,4.8,0.,4.8,0.,4.8
1979-07-20 06:06:18.890 ,0,0,0.,4.8,0.,4.8,0.,4.8,0.,4.8
1979-07-20 06:06:23.690 ,5,0,0.,4.8,1.,4.8,0.,4.8,1.,4.8
1979-07-20 06:06:28.490 ,5,0,0.,4.8,6.,4.8,4.,4.8,0.,4.8
1979-07-20 06:06:33.290 ,5,0,0.,4.8,2.,4.8,3.,4.8,2.,4.8
1979-07-20 06:06:38.090 ,5,0,0.,4.8,7.,4.8,5.,4.8,1.,4.8
1979-07-20 06:06:42.890 ,5,0,0.,4.8,3.,4.8,2.,4.8,2.,4.8
1979-07-20 06:06:47.690 ,5,0,0.,4.8,2.,4.8,3.,4.8,4.,4.8
1979-07-20 06:06:52.490 ,5,0,0.,4.8,6.,4.8,3.,4.8,1.,4.8
1979-07-20 06:06:57.290 ,5,0,0.,4.8,8.,4.8,0.,4.8,3.,4.8
1979-07-20 06:07:02.090 ,5,0,0.,4.8,7.,4.8,5.,4.8,5.,4.8
1979-07-20 06:07:06.890 ,5,0,0.,4.8,8.,4.8,6.,4.8,3.,4.8
1979-07-20 06:07:11.690 ,4,0,0.,4.8,7.,4.8,4.,4.8,4.,4.8
1979-07-20 06:07:16.490 ,4,0,0.,4.8,5.,4.8,3.,4.8,1.,4.8
1979-07-20 06:07:21.290 ,4,0,0.,4.8,6.,4.8,1.,4.8,1.,4.8
1979-07-20 06:07:26.090 ,4,0,0.,4.8,4.,4.8,2.,4.8,1.,4.8
1979-07-20 06:07:30.890 ,4,0,0.,4.8,6.,4.8,1.,4.8,0.,4.8
1979-07-20 06:07:35.690 ,4,0,0.,4.8,5.,4.8,3.,4.8,3.,4.8
1979-07-20 06:07:40.490 ,4,0,0.,4.8,4.,4.8,5.,4.8,0.,4.8
1979-07-20 06:07:45.290 ,4,0,0.,4.8,4.,4.8,5.,4.8,2.,4.8
1979-07-20 06:07:50.090 ,4,0,0.,4.8,8.,4.8,3.,4.8,3.,4.8
1979-07-20 06:07:54.890 ,4,0,0.,4.8,8.,4.8,1.,4.8,1.,4.8
1979-07-20 06:07:59.690 ,3,0,0.,4.8,2.,4.8,4.,4.8,6.,4.8
1979-07-20 06:08:04.490 ,3,0,0.,4.8,8.,4.8,1.,4.8,3.,4.8
1979-07-20 06:08:09.290 ,3,0,0.,4.8,5.,4.8,2.,4.8,3.,4.8
1979-07-20 06:08:14.090 ,3,0,0.,4.8,7.,4.8,0.,4.8,6.,4.8
1979-07-20 06:08:18.890 ,3,0,0.,4.8,7.,4.8,2.,4.8,1.,4.8
1979-07-20 06:08:23.690 ,3,0,0.,4.8,9.,4.8,3.,4.8,2.,4.8
1979-07-20 06:08:28.490 ,3,0,0.,4.8,4.,4.8,4.,4.8,2.,4.8
1979-07-20 06:08:33.290 ,3,0,0.,4.8,6.,4.8,1.,4.8,0.,4.8
1979-07-20 06:08:38.090 ,3,0,0.,4.8,5.,4.8,1.,4.8,2.,4.8
1979-07-20 06:08:42.890 ,3,0,0.,4.8,7.,4.8,2.,4.8,0.,4.8
1979-07-20 06:08:47.690 ,2,0,0.,4.8,9.,4.8,6.,4.8,2.,4.8
1979-07-20 06:08:52.490 ,2,0,0.,4.8,6.,4.8,3.,4.8,1.,4.8
1979-07-20 06:08:57.290 ,2,0,0.,4.8,10.,4.8,4.,4.8,1.,4.8
1979-07-20 06:09:02.090 ,2,0,0.,4.8,5.,4.8,3.,4.8,4.,4.8
1979-07-20 06:09:06.890 ,2,0,0.,4.8,10.,4.8,4.,4.8,1.,4.8
1979-07-20 06:09:11.690 ,2,0,0.,4.8,5.,4.8,3.,4.8,5.,4.8
1979-07-20 06:09:16.490 ,2,0,0.,4.8,4.,4.8,3.,4.8,1.,4.8
1979-07-20 06:09:21.290 ,2,0,0.,4.8,7.,4.8,8.,4.8,1.,4.8
1979-07-20 06:09:26.090 ,2,0,0.,4.8,9.,4.8,4.,4.8,3.,4.8
1979-07-20 06:09:30.890 ,2,0,0.,4.8,8.,4.8,4.,4.8,7.,4.8
1979-07-20 06:09:35.690 ,1,0,0.,4.8,1.,4.8,6.,4.8,1.,4.8
1979-07-20 06:09:40.490 ,1,0,0.,4.8,6.,4.8,5.,4.8,0.,4.8
1979-07-20 06:09:45.290 ,1,0,0.,4.8,6.,4.8,5.,4.8,1.,4.8
1979-07-20 06:09:50.090 ,1,0,0.,4.8,12.,4.8,0.,4.8,2.,4.8
1979-07-20 06:09:54.890 ,1,0,0.,4.8,7.,4.8,2.,4.8,3.,4.8
1979-07-20 06:09:59.690 ,1,0,0.,4.8,5.,4.8,9.,4.8,2.,4.8
1979-07-20 06:10:04.490 ,1,0,0.,4.8,7.,4.8,6.,4.8,0.,4.8
1979-07-20 06:10:09.290 ,1,0,0.,4.8,8.,4.8,2.,4.8,2.,4.8
1979-07-20 06:10:14.090 ,1,0,0.,4.8,2.,4.8,5.,4.8,3.,4.8
1979-07-20 06:10:18.890 ,1,0,0.,4.8,5.,4.8,5.,4.8,2.,4.8
1979-07-20 06:10:23.690 ,0,0,0.,4.8,8.,4.8,4.,4.8,3.,4.8
1979-07-20 06:10:28.490 ,0,0,0.,4.8,5.,4.8,2.,4.8,3.,4.8
1979-07-20 06:10:33.290 ,0,0,0.,4.8,4.,4.8,4.,4.8,2.,4.8
1979-07-20 06:10:38.090 ,0,0,0.,4.8,10.,4.8,6.,4.8,0.,4.8
1979-07-20 06:10:42.890 ,0,0,0.,4.8,6.,4.8,4.,4.8,4.,4.8
1979-07-20 06:10:47.690 ,0,0,0.,4.8,7.,4.8,7.,4.8,2.,4.8
1979-07-20 06:10:52.490 ,0,0,0.,4.8,7.,4.8,4.,4.8,5.,4.8
1979-07-20 06:10:57.290 ,0,0,0.,4.8,5.,4.8,3.,4.8,3.,4.8
1979-07-20 06:11:02.090 ,0,0,0.,4.8,6.,4.8,3.,4.8,0.,4.8
1979-07-20 06:11:06.890 ,0,0,0.,4.8,2.,4.8,1.,4.8,8.,4.8
1979-07-20 06:11:11.690 ,0,0,0.,4.8,6.,4.8,3.,4.8,2.,4.8
1979-07-20 06:11:16.490 ,0,0,1.,4.8,5.,4.8,3.,4.8,1.,4.8
1979-07-20 06:11:21.290 ,0,0,0.,4.8,3.,4.8,2.,4.8,3.,4.8
1979-07-20 06:11:26.090 ,0,0,0.,4.8,7.,4.8,5.,4.8,1.,4.8
1979-07-20 06:11:30.890 ,0,0,0.,4.8,7.,4.8,3.,4.8,3.,4.8
1979-07-20 06:11:35.690 ,0,0,0.,4.8,6.,4.8,6.,4.8,4.,4.8
1979-07-20 06:11:40.490 ,0,0,0.,4.8,7.,4.8,3.,4.8,4.,4.8
1979-07-20 06:11:45.290 ,0,0,0.,4.8,5.,4.8,7.,4.8,4.,4.8
1979-07-20 06:11:50.090 ,0,0,0.,4.8,9.,4.8,6.,4.8,3.,4.8
1979-07-20 06:11:54.890 ,0,0,0.,4.8,8.,4.8,1.,4.8,5.,4.8
1979-07-20 06:11:59.690 ,1,0,0.,4.8,4.,4.8,5.,4.8,4.,4.8
1979-07-20 06:12:04.490 ,1,0,0.,4.8,6.,4.8,2.,4.8,5.,4.8
1979-07-20 06:12:09.290 ,1,0,0.,4.8,9.,4.8,2.,4.8,5.,4.8
1979-07-20 06:12:14.090 ,1,0,0.,4.8,5.,4.8,5.,4.8,2.,4.8
1979-07-20 06:12:18.890 ,1,0,0.,4.8,11.,4.8,3.,4.8,6.,4.8
1979-07-20 06:12:23.690 ,1,0,0.,4.8,7.,4.8,2.,4.8,2.,4.8
1979-07-20 06:12:28.490 ,1,0,0.,4.8,6.,4.8,2.,4.8,3.,4.8
1979-07-20 06:12:33.290 ,1,0,0.,4.8,3.,4.8,2.,4.8,4.,4.8
1979-07-20 06:12:38.090 ,1,0,0.,4.8,9.,4.8,5.,4.8,9.,4.8
1979-07-20 06:12:42.890 ,1,0,0.,4.8,3.,4.8,5.,4.8,2.,4.8
1979-07-20 06:12:47.690 ,2,0,0.,4.8,5.,4.8,2.,4.8,2.,4.8
1979-07-20 06:12:52.490 ,2,0,0.,4.8,4.,4.8,5.,4.8,5.,4.8
1979-07-20 06:12:57.290 ,2,0,0.,4.8,4.,4.8,5.,4.8,2.,4.8
1979-07-20 06:13:02.090 ,2,0,0.,4.8,5.,4.8,4.,4.8,1.,4.8
1979-07-20 06:13:06.890 ,2,0,0.,4.8,1.,4.8,1.,4.8,4.,4.8
1979-07-20 06:13:11.690 ,2,0,0.,4.8,3.,4.8,5.,4.8,6.,4.8
1979-07-20 06:13:16.490 ,2,0,0.,4.8,4.,4.8,0.,4.8,2.,4.8
1979-07-20 06:13:21.290 ,2,0,0.,4.8,8.,4.8,6.,4.8,4.,4.8
1979-07-20 06:13:26.090 ,2,0,0.,4.8,9.,4.8,7.,4.8,1.,4.8
1979-07-20 06:13:30.890 ,2,0,0.,4.8,8.,4.8,6.,4.8,3.,4.8
1979-07-20 06:13:35.690 ,3,0,0.,4.8,8.,4.8,2.,4.8,2.,4.8
1979-07-20 06:13:40.490 ,3,0,0.,4.8,8.,4.8,4.,4.8,2.,4.8
1979-07-20 06:13:45.290 ,3,0,0.,4.8,7.,4.8,3.,4.8,2.,4.8
1979-07-20 06:13:50.090 ,3,0,0.,4.8,11.,4.8,1.,4.8,4.,4.8
1979-07-20 06:13:54.890 ,3,0,0.,4.8,5.,4.8,5.,4.8,0.,4.8
1979-07-20 06:13:59.690 ,3,0,0.,4.8,3.,4.8,6.,4.8,2.,4.8
1979-07-20 06:14:04.490 ,3,0,0.,4.8,9.,4.8,4.,4.8,2.,4.8
1979-07-20 06:14:09.290 ,3,0,0.,4.8,6.,4.8,5.,4.8,2.,4.8
1979-07-20 06:14:14.090 ,3,0,0.,4.8,7.,4.8,1.,4.8,3.,4.8
1979-07-20 06:14:18.890 ,3,0,0.,4.8,9.,4.8,2.,4.8,3.,4.8
1979-07-20 06:14:23.690 ,4,0,0.,4.8,6.,4.8,5.,4.8,2.,4.8
1979-07-20 06:14:28.490 ,4,0,0.,4.8,5.,4.8,6.,4.8,0.,4.8
1979-07-20 06:14:33.290 ,4,0,0.,4.8,2.,4.8,4.,4.8,2.,4.8
1979-07-20 06:14:38.090 ,4,0,0.,4.8,10.,4.8,5.,4.8,3.,4.8
1979-07-20 06:14:42.890 ,4,0,0.,4.8,7.,4.8,3.,4.8,2.,4.8
1979-07-20 06:14:47.690 ,4,0,0.,4.8,3.,4.8,7.,4.8,2.,4.8
1979-07-20 06:14:52.490 ,4,0,0.,4.8,7.,4.8,4.,4.8,2.,4.8
1979-07-20 06:14:57.290 ,4,0,0.,4.8,3.,4.8,4.,4.8,3.,4.8
1979-07-20 06:15:02.090 ,4,0,0.,4.8,7.,4.8,4.,4.8,0.,4.8
1979-07-20 06:15:06.890 ,4,0,0.,4.8,8.,4.8,0.,4.8,3.,4.8
1979-07-20 06:15:59.690 ,0,0,0.,4.8,6.,4.8,6.,4.8,2.,4.8
1979-07-20 06:16:04.490 ,0,0,0.,4.8,4.,4.8,1.,4.8,2.,4.8
1979-07-20 06:16:09.290 ,0,0,0.,4.8,5.,4.8,2.,4.8,2.,4.8
1979-07-20 06:16:14.090 ,0,0,0.,4.8,5.,4.8,6.,4.8,3.,4.8
1979-07-20 06:16:18.890 ,0,0,0.,4.8,7.,4.8,6.,4.8,3.,4.8
1979-07-20 06:16:23.690 ,0,0,0.,4.8,4.,4.8,3.,4.8,3.,4.8
1979-07-20 06:16:28.490 ,0,0,0.,4.8,5.,4.8,3.,4.8,0.,4.8
1979-07-20 06:16:33.290 ,0,0,0.,4.8,5.,4.8,4.,4.8,3.,4.8
1979-07-20 06:16:38.090 ,0,0,0.,4.8,8.,4.8,2.,4.8,1.,4.8
1979-07-20 06:16:42.890 ,0,0,0.,4.8,5.,4.8,1.,4.8,2.,4.8
1979-07-20 06:16:47.690 ,7,0,0.,4.8,3.,4.8,3.,4.8,1.,4.8
1979-07-20 06:16:52.490 ,7,0,0.,4.8,2.,4.8,2.,4.8,1.,4.8
1979-07-20 06:16:57.290 ,7,0,0.,4.8,1.,4.8,0.,4.8,0.,4.8
1979-07-20 06:17:02.090 ,7,0,0.,4.8,1.,4.8,0.,4.8,0.,4.8
1979-07-20 06:17:06.890 ,7,0,0.,4.8,0.,4.8,0.,4.8,0.,4.8
1979-07-20 06:17:11.690 ,7,0,0.,4.8,0.,4.8,0.,4.8,0.,4.8
1979-07-20 06:17:16.490 ,7,0,0.,4.8,0.,4.8,0.,4.8,0.,4.8
1979-07-20 06:17:21.290 ,7,0,0.,4.8,0.,4.8,0.,4.8,0.,4.8
1979-07-20 06:17:26.090 ,7,0,0.,4.8,1.,4.8,0.,4.8,0.,4.8
1979-07-20 06:17:30.890 ,7,0,0.,4.8,1.,4.8,0.,4.8,0.,4.8
1979-07-20 06:17:35.690 ,7,0,0.,4.8,0.,4.8,0.,4.8,0.,4.8
1979-07-20 06:17:40.490 ,7,0,0.,4.8,0.,4.8,0.,4.8,0.,4.8
1979-07-20 06:17:45.290 ,7,0,0.,4.8,0.,4.8,0.,4.8,1.,4.8
1979-07-20 06:17:50.090 ,7,0,0.,4.8,1.,4.8,0.,4.8,0.,4.8
1979-07-20 06:17:54.890 ,7,0,0.,4.8,0.,4.8,0.,4.8,1.,4.8
1979-07-20 06:17:59.690 ,7,0,0.,4.8,0.,4.8,0.,4.8,0.,4.8
1979-07-20 06:18:04.490 ,7,0,0.,4.8,0.,4.8,0.,4.8,0.,4.8
1979-07-20 06:18:09.290 ,7,0,0.,4.8,1.,4.8,0.,4.8,0.,4.8
1979-07-20 06:18:14.090 ,7,0,0.,4.8,2.,4.8,0.,4.8,0.,4.8
1979-07-20 06:18:18.890 ,7,0,0.,4.8,0.,4.8,0.,4.8,0.,4.8
1979-07-20 06:18:23.690 ,6,0,0.,4.8,0.,4.8,0.,4.8,0.,4.8
1979-07-20 06:18:28.490 ,6,0,0.,4.8,0.,4.8,0.,4.8,0.,4.8
1979-07-20 06:18:33.290 ,6,0,0.,4.8,4.,4.8,2.,4.8,1.,4.8
1979-07-20 06:18:38.090 ,6,0,0.,4.8,2.,4.8,3.,4.8,3.,4.8
1979-07-20 06:18:42.890 ,6,0,0.,4.8,4.,4.8,1.,4.8,6.,4.8
1979-07-20 06:18:47.690 ,6,0,0.,4.8,2.,4.8,2.,4.8,4.,4.8
1979-07-20 06:18:52.490 ,6,0,0.,4.8,9.,4.8,6.,4.8,0.,4.8
1979-07-20 06:18:57.290 ,6,0,0.,4.8,3.,4.8,2.,4.8,4.,4.8
1979-07-20 06:19:02.090 ,6,0,0.,4.8,5.,4.8,6.,4.8,2.,4.8
1979-07-20 06:19:06.890 ,6,0,0.,4.8,0.,4.8,4.,4.8,5.,4.8
1979-07-20 06:19:11.690 ,5,0,0.,4.8,4.,4.8,2.,4.8,0.,4.8
1979-07-20 06:19:16.490 ,5,0,0.,4.8,2.,4.8,4.,4.8,1.,4.8
1979-07-20 06:19:21.290 ,5,0,0.,4.8,6.,4.8,2.,4.8,2.,4.8
1979-07-20 06:19:26.090 ,5,0,0.,4.8,4.,4.8,4.,4.8,3.,4.8
1979-07-20 06:19:30.890 ,5,0,0.,4.8,10.,4.8,1.,4.8,5.,4.8
1979-07-20 06:19:35.690 ,5,0,0.,4.8,6.,4.8,5.,4.8,2.,4.8
1979-07-20 06:19:40.490 ,5,0,0.,4.8,9.,4.8,4.,4.8,6.,4.8
1979-07-20 06:19:45.290 ,5,0,0.,4.8,8.,4.8,5.,4.8,3.,4.8
1979-07-20 06:19:50.090 ,5,0,0.,4.8,4.,4.8,4.,4.8,1.,4.8
1979-07-20 06:19:54.890 ,5,0,0.,4.8,10.,4.8,1.,4.8,0.,4.8
1979-07-20 06:19:59.690 ,4,0,0.,4.8,1.,4.8,1.,4.8,2.,4.8
1979-07-20 06:20:04.490 ,4,0,0.,4.8,3.,4.8,2.,4.8,3.,4.8
1979-07-20 06:20:09.290 ,4,0,0.,4.8,3.,4.8,1.,4.8,3.,4.8
1979-07-20 06:20:14.090 ,4,0,0.,4.8,1.,4.8,4.,4.8,2.,4.8
1979-07-20 06:20:18.890 ,4,0,0.,4.8,6.,4.8,5.,4.8,3.,4.8
1979-07-20 06:20:23.690 ,4,0,0.,4.8,2.,4.8,3.,4.8,1.,4.8
1979-07-20 06:20:28.490 ,4,0,0.,4.8,8.,4.8,4.,4.8,5.,4.8
1979-07-20 06:20:33.290 ,4,0,0.,4.8,5.,4.8,4.,4.8,0.,4.8
1979-07-20 06:20:38.090 ,4,0,0.,4.8,5.,4.8,2.,4.8,3.,4.8
1979-07-20 06:20:42.890 ,4,0,0.,4.8,6.,4.8,2.,4.8,2.,4.8
1979-07-20 06:20:47.690 ,3,0,0.,4.8,1.,4.8,2.,4.8,4.,4.8
1979-07-20 06:20:52.490 ,3,0,0.,4.8,10.,4.8,2.,4.8,0.,4.8
1979-07-20 06:20:57.290 ,3,0,0.,4.8,6.,4.8,3.,4.8,2.,4.8
1979-07-20 06:21:02.090 ,3,0,0.,4.8,4.,4.8,5.,4.8,3.,4.8
1979-07-20 06:21:06.890 ,3,0,0.,4.8,4.,4.8,3.,4.8,1.,4.8
1979-07-20 06:21:11.690 ,0,0,0.,4.8,2.,4.8,3.,4.8,3.,4.8
1979-07-20 06:21:16.490 ,0,0,0.,4.8,5.,4.8,1.,4.8,1.,4.8
1979-07-20 06:21:21.290 ,0,0,0.,4.8,7.,4.8,4.,4.8,2.,4.8
1979-07-20 06:21:26.090 ,0,0,0.,4.8,4.,4.8,2.,4.8,2.,4.8
1979-07-20 06:21:30.890 ,0,0,,0,,0,,0,,0
1979-07-20 06:21:41.090 ,0,0,,0,,0,,0,,0
1979-07-20 06:21:45.890 ,0,0,0.,4.8,5.,4.8,3.,4.8,2.,4.8
1979-07-20 06:21:50.690 ,0,0,0.,4.8,6.,4.8,4.,4.8,2.,4.8
1979-07-20 06:21:55.490 ,0,0,0.,4.8,7.,4.8,2.,4.8,2.,4.8
1979-07-20 06:22:00.290 ,0,0,0.,4.8,4.,4.8,4.,4.8,1.,4.8
1979-07-20 06:21:59.690 ,0,0,0.,4.8,4.,4.8,7.,4.8,1.,4.8
1979-07-20 06:22:04.490 ,0,0,0.,4.8,6.,4.8,5.,4.8,1.,4.8
1979-07-20 06:22:09.290 ,0,0,0.,4.8,7.,4.8,4.,4.8,6.,4.8
1979-07-20 06:22:14.090 ,0,0,0.,4.8,4.,4.8,0.,4.8,2.,4.8
1979-07-20 06:22:18.890 ,0,0,0.,4.8,2.,4.8,3.,4.8,4.,4.8
1979-07-20 06:22:23.690 ,1,0,0.,4.8,5.,4.8,2.,4.8,2.,4.8
1979-07-20 06:22:28.490 ,1,0,0.,4.8,3.,4.8,4.,4.8,4.,4.8
1979-07-20 06:22:33.290 ,1,0,0.,4.8,1.,4.8,5.,4.8,3.,4.8
1979-07-20 06:22:38.090 ,1,0,0.,4.8,4.,4.8,2.,4.8,2.,4.8
1979-07-20 06:22:42.890 ,1,0,0.,4.8,8.,4.8,3.,4.8,2.,4.8
1979-07-20 06:22:47.690 ,1,0,0.,4.8,5.,4.8,2.,4.8,1.,4.8
1979-07-20 06:22:52.490 ,1,0,0.,4.8,6.,4.8,1.,4.8,0.,4.8
1979-07-20 06:22:57.290 ,1,0,0.,4.8,4.,4.8,3.,4.8,2.,4.8
1979-07-20 06:23:02.090 ,1,0,0.,4.8,6.,4.8,6.,4.8,3.,4.8
1979-07-20 06:23:06.890 ,1,0,0.,4.8,4.,4.8,5.,4.8,2.,4.8
1979-07-20 06:23:11.690 ,0,0,0.,4.8,4.,4.8,1.,4.8,4.,4.8
1979-07-20 06:23:16.490 ,0,0,0.,4.8,4.,4.8,3.,4.8,5.,4.8
1979-07-20 06:23:21.290 ,0,0,0.,4.8,5.,4.8,0.,4.8,0.,4.8
1979-07-20 06:23:26.090 ,0,0,0.,4.8,7.,4.8,2.,4.8,1.,4.8
1979-07-20 06:23:30.890 ,0,0,0.,4.8,2.,4.8,6.,4.8,3.,4.8
1979-07-20 06:23:35.690 ,0,0,0.,4.8,4.,4.8,0.,4.8,1.,4.8
1979-07-20 06:23:40.490 ,0,0,0.,4.8,2.,4.8,1.,4.8,2.,4.8
1979-07-20 06:23:45.290 ,0,0,0.,4.8,1.,4.8,3.,4.8,0.,4.8
1979-07-20 06:23:50.090 ,0,0,0.,4.8,6.,4.8,1.,4.8,2.,4.8
1979-07-20 06:23:54.890 ,0,0,0.,4.8,9.,4.8,2.,4.8,3.,4.8
1979-07-20 06:23:59.690 ,0,0,0.,4.8,5.,4.8,5.,4.8,4.,4.8
1979-07-20 06:24:04.490 ,0,0,0.,4.8,2.,4.8,6.,4.8,1.,4.8
1979-07-20 06:24:09.290 ,0,0,0.,4.8,4.,4.8,2.,4.8,1.,4.8
1979-07-20 06:24:14.090 ,0,0,0.,4.8,5.,4.8,1.,4.8,4.,4.8
1979-07-20 06:24:18.890 ,0,0,0.,4.8,9.,4.8,6.,4.8,0.,4.8
1979-07-20 06:24:23.690 ,0,0,0.,4.8,4.,4.8,4.,4.8,5.,4.8
1979-07-20 06:24:28.490 ,0,0,0.,4.8,5.,4.8,2.,4.8,4.,4.8
1979-07-20 06:24:33.290 ,0,0,0.,4.8,3.,4.8,1.,4.8,0.,4.8
1979-07-20 06:24:38.090 ,0,0,0.,4.8,7.,4.8,3.,4.8,3.,4.8
1979-07-20 06:24:42.890 ,0,0,0.,4.8,6.,4.8,0.,4.8,3.,4.8
1979-07-20 06:24:47.690 ,1,0,0.,4.8,4.,4.8,3.,4.8,3.,4.8
1979-07-20 06:24:52.490 ,1,0,0.,4.8,4.,4.8,4.,4.8,3.,4.8
1979-07-20 06:24:57.290 ,1,0,0.,4.8,1.,4.8,4.,4.8,0.,4.8
1979-07-20 06:25:02.090 ,1,0,0.,4.8,7.,4.8,3.,4.8,5.,4.8
1979-07-20 06:25:06.890 ,1,0,0.,4.8,9.,4.8,5.,4.8,2.,4.8
1979-07-20 06:25:11.690 ,1,0,0.,4.8,2.,4.8,2.,4.8,2.,4.8
1979-07-20 06:25:16.490 ,1,0,0.,4.8,5.,4.8,5.,4.8,4.,4.8
1979-07-20 06:25:21.290 ,1,0,0.,4.8,3.,4.8,4.,4.8,3.,4.8
1979-07-20 06:25:26.090 ,1,0,0.,4.8,6.,4.8,3.,4.8,1.,4.8
1979-07-20 06:25:30.890 ,1,0,0.,4.8,7.,4.8,3.,4.8,0.,4.8
1979-07-20 06:25:35.690 ,2,0,0.,4.8,6.,4.8,2.,4.8,1.,4.8
1979-07-20 06:25:40.490 ,2,0,0.,4.8,7.,4.8,2.,4.8,5.,4.8
1979-07-20 06:25:45.290 ,2,0,0.,4.8,9.,4.8,2.,4.8,2.,4.8
1979-07-20 06:25:50.090 ,2,0,0.,4.8,4.,4.8,4.,4.8,1.,4.8
1979-07-20 06:25:54.890 ,2,0,0.,4.8,10.,4.8,2.,4.8,2.,4.8
1979-07-20 06:25:59.690 ,2,0,0.,4.8,4.,4.8,3.,4.8,3.,4.8
1979-07-20 06:26:04.490 ,2,0,0.,4.8,4.,4.8,2.,4.8,3.,4.8
1979-07-20 06:26:09.290 ,2,0,0.,4.8,6.,4.8,4.,4.8,2.,4.8
1979-07-20 06:26:14.090 ,2,0,0.,4.8,4.,4.8,2.,4.8,3.,4.8
1979-07-20 06:26:18.890 ,2,0,0.,4.8,4.,4.8,4.,4.8,1.,4.8
1979-07-20 06:26:23.690 ,3,0,0.,4.8,3.,4.8,5.,4.8,2.,4.8
1979-07-20 06:26:28.490 ,3,0,0.,4.8,5.,4.8,7.,4.8,1.,4.8
1979-07-20 06:26:33.290 ,3,0,0.,4.8,7.,4.8,3.,4.8,5.,4.8
1979-07-20 06:26:38.090 ,3,0,0.,4.8,5.,4.8,1.,4.8,2.,4.8
1979-07-20 06:26:42.890 ,3,0,0.,4.8,3.,4.8,2.,4.8,3.,4.8
1979-07-20 06:26:47.690 ,3,0,0.,4.8,5.,4.8,4.,4.8,2.,4.8
1979-07-20 06:26:52.490 ,3,0,0.,4.8,3.,4.8,5.,4.8,6.,4.8
1979-07-20 06:26:57.290 ,3,0,0.,4.8,8.,4.8,4.,4.8,2.,4.8
1979-07-20 06:27:02.090 ,3,0,0.,4.8,5.,4.8,3.,4.8,3.,4.8
1979-07-20 06:27:06.890 ,3,0,0.,4.8,7.,4.8,3.,4.8,0.,4.8
1979-07-20 06:27:11.690 ,4,0,0.,4.8,3.,4.8,4.,4.8,3.,4.8
1979-07-20 06:27:16.490 ,4,0,0.,4.8,4.,4.8,6.,4.8,2.,4.8
1979-07-20 06:27:21.290 ,4,0,0.,4.8,5.,4.8,3.,4.8,1.,4.8
1979-07-20 06:27:26.090 ,4,0,0.,4.8,4.,4.8,2.,4.8,5.,4.8
1979-07-20 06:27:30.890 ,4,0,0.,4.8,5.,4.8,4.,4.8,3.,4.8
1979-07-20 06:27:35.690 ,4,0,0.,4.8,1.,4.8,2.,4.8,4.,4.8
1979-07-20 06:27:40.490 ,4,0,0.,4.8,3.,4.8,4.,4.8,2.,4.8
1979-07-20 06:27:45.290 ,4,0,0.,4.8,7.,4.8,1.,4.8,2.,4.8
1979-07-20 06:27:50.090 ,4,0,0.,4.8,4.,4.8,2.,4.8,1.,4.8
1979-07-20 06:27:54.890 ,4,0,0.,4.8,2.,4.8,3.,4.8,5.,4.8
1979-07-20 06:27:59.690 ,5,0,0.,4.8,6.,4.8,4.,4.8,0.,4.8
1979-07-20 06:28:04.490 ,5,0,0.,4.8,10.,4.8,2.,4.8,5.,4.8
1979-07-20 06:28:09.290 ,5,0,0.,4.8,2.,4.8,2.,4.8,2.,4.8
1979-07-20 06:28:14.090 ,5,0,0.,4.8,7.,4.8,4.,4.8,0.,4.8
1979-07-20 06:28:18.890 ,5,0,0.,4.8,3.,4.8,4.,4.8,1.,4.8
1979-07-20 06:28:23.690 ,5,0,0.,4.8,4.,4.8,4.,4.8,3.,4.8
1979-07-20 06:28:28.490 ,5,0,0.,4.8,1.,4.8,7.,4.8,0.,4.8
1979-07-20 06:28:33.290 ,5,0,0.,4.8,4.,4.8,1.,4.8,1.,4.8
1979-07-20 06:28:38.090 ,5,0,0.,4.8,7.,4.8,3.,4.8,3.,4.8
1979-07-20 06:28:42.890 ,5,0,0.,4.8,6.,4.8,4.,4.8,6.,4.8
1979-07-20 06:28:47.690 ,6,0,0.,4.8,1.,4.8,1.,4.8,3.,4.8
1979-07-20 06:28:52.490 ,6,0,0.,4.8,5.,4.8,1.,4.8,1.,4.8
1979-07-20 06:28:57.290 ,6,0,0.,4.8,3.,4.8,3.,4.8,3.,4.8
1979-07-20 06:29:02.090 ,6,0,0.,4.8,3.,4.8,5.,4.8,3.,4.8
1979-07-20 06:29:06.890 ,6,0,0.,4.8,8.,4.8,5.,4.8,0.,4.8
1979-07-20 06:29:11.690 ,6,0,0.,4.8,2.,4.8,3.,4.8,3.,4.8
1979-07-20 06:29:16.490 ,6,0,0.,4.8,4.,4.8,3.,4.8,4.,4.8
1979-07-20 06:29:21.290 ,6,0,0.,4.8,6.,4.8,7.,4.8,0.,4.8
1979-07-20 06:29:26.090 ,6,0,0.,4.8,5.,4.8,2.,4.8,1.,4.8
1979-07-20 06:29:30.890 ,6,0,0.,4.8,3.,4.8,1.,4.8,2.,4.8
1979-07-20 06:29:35.690 ,7,0,0.,4.8,1.,4.8,3.,4.8,1.,4.8
1979-07-20 06:29:40.490 ,7,0,0.,4.8,4.,4.8,2.,4.8,6.,4.8
1979-07-20 06:29:45.290 ,7,0,0.,4.8,0.,4.8,0.,4.8,0.,4.8
1979-07-20 06:29:50.090 ,7,0,0.,4.8,1.,4.8,1.,4.8,1.,4.8
1979-07-20 06:29:54.890 ,7,0,0.,4.8,0.,4.8,1.,4.8,0.,4.8
1979-07-20 06:29:59.690 ,7,0,0.,4.8,1.,4.8,0.,4.8,0.,4.8
1979-07-20 06:30:04.490 ,7,0,0.,4.8,1.,4.8,0.,4.8,0.,4.8
1979-07-20 06:30:09.290 ,7,0,0.,4.8,1.,4.8,1.,4.8,0.,4.8
1979-07-20 06:30:14.090 ,7,0,0.,4.8,2.,4.8,0.,4.8,0.,4.8
1979-07-20 06:30:18.890 ,7,0,0.,4.8,0.,4.8,0.,4.8,0.,4.8
1979-07-20 06:30:23.690 ,7,0,0.,4.8,0.,4.8,1.,4.8,0.,4.8
1979-07-20 06:30:28.490 ,7,0,0.,4.8,1.,4.8,0.,4.8,0.,4.8
1979-07-20 06:30:33.290 ,7,0,0.,4.8,0.,4.8,0.,4.8,0.,4.8
1979-07-20 06:30:38.090 ,7,0,0.,4.8,0.,4.8,0.,4.8,0.,4.8
1979-07-20 06:30:42.890 ,7,0,0.,4.8,2.,4.8,0.,4.8,0.,4.8
1979-07-20 06:30:47.690 ,7,0,0.,4.8,0.,4.8,0.,4.8,1.,4.8
1979-07-20 06:30:52.490 ,7,0,0.,4.8,3.,4.8,0.,4.8,0.,4.8
1979-07-20 06:30:57.290 ,7,0,0.,4.8,4.,4.8,1.,4.8,1.,4.8
1979-07-20 06:31:02.090 ,7,0,0.,4.8,0.,4.8,0.,4.8,0.,4.8
1979-07-20 06:31:06.890 ,7,0,0.,4.8,0.,4.8,0.,4.8,0.,4.8
1979-07-20 06:31:11.690 ,6,0,0.,4.8,1.,4.8,0.,4.8,0.,4.8
1979-07-20 06:31:16.490 ,6,0,0.,4.8,0.,4.8,0.,4.8,0.,4.8
1979-07-20 06:31:21.290 ,6,0,0.,4.8,5.,4.8,2.,4.8,2.,4.8
1979-07-20 06:31:26.090 ,6,0,0.,4.8,4.,4.8,3.,4.8,2.,4.8
1979-07-20 06:31:30.890 ,6,0,0.,4.8,4.,4.8,6.,4.8,6.,4.8
1979-07-20 06:31:35.690 ,6,0,0.,4.8,3.,4.8,2.,4.8,2.,4.8
1979-07-20 06:31:40.490 ,6,0,0.,4.8,3.,4.8,0.,4.8,2.,4.8
1979-07-20 06:31:45.290 ,6,0,0.,4.8,1.,4.8,3.,4.8,4.,4.8
1979-07-20 06:31:50.090 ,6,0,0.,4.8,2.,4.8,1.,4.8,4.,4.8
1979-07-20 06:31:54.890 ,6,0,0.,4.8,1.,4.8,1.,4.8,1.,4.8
1979-07-20 06:31:59.690 ,5,0,0.,4.8,4.,4.8,7.,4.8,1.,4.8
1979-07-20 06:32:04.490 ,5,0,0.,4.8,4.,4.8,4.,4.8,0.,4.8
1979-07-20 06:32:09.290 ,5,0,0.,4.8,3.,4.8,6.,4.8,0.,4.8
1979-07-20 06:32:14.090 ,5,0,0.,4.8,1.,4.8,2.,4.8,2.,4.8
1979-07-20 06:32:18.890 ,5,0,0.,4.8,4.,4.8,6.,4.8,1.,4.8
1979-07-20 06:32:23.690 ,5,0,0.,4.8,5.,4.8,5.,4.8,1.,4.8
1979-07-20 06:32:28.490 ,5,0,0.,4.8,5.,4.8,2.,4.8,2.,4.8
1979-07-20 06:32:33.290 ,5,0,0.,4.8,5.,4.8,1.,4.8,3.,4.8
1979-07-20 06:32:38.090 ,5,0,0.,4.8,3.,4.8,5.,4.8,0.,4.8
1979-07-20 06:32:42.890 ,5,0,0.,4.8,6.,4.8,2.,4.8,1.,4.8
1979-07-20 06:32:47.690 ,4,0,0.,4.8,2.,4.8,1.,4.8,7.,4.8
1979-07-20 06:32:52.490 ,4,0,0.,4.8,1.,4.8,5.,4.8,2.,4.8
1979-07-20 06:32:57.290 ,4,0,0.,4.8,6.,4.8,0.,4.8,1.,4.8
1979-07-20 06:33:02.090 ,4,0,0.,4.8,2.,4.8,1.,4.8,0.,4.8
1979-07-20 06:33:06.890 ,4,0,0.,4.8,5.,4.8,5.,4.8,4.,4.8
1979-07-20 06:33:11.690 ,4,0,0.,4.8,4.,4.8,6.,4.8,3.,4.8
1979-07-20 06:33:16.490 ,4,0,0.,4.8,2.,4.8,3.,4.8,3.,4.8
1979-07-20 06:33:21.290 ,4,0,0.,4.8,2.,4.8,6.,4.8,1.,4.8
1979-07-20 06:33:26.090 ,4,0,0.,4.8,8.,4.8,2.,4.8,1.,4.8
1979-07-20 06:33:30.890 ,4,0,0.,4.8,4.,4.8,2.,4.8,2.,4.8
1979-07-20 06:33:35.690 ,3,0,0.,4.8,2.,4.8,3.,4.8,3.,4.8
1979-07-20 06:33:40.490 ,3,0,0.,4.8,7.,4.8,3.,4.8,3.,4.8
1979-07-20 06:33:45.290 ,3,0,0.,4.8,4.,4.8,3.,4.8,1.,4.8
1979-07-20 06:33:50.090 ,3,0,1.,4.8,2.,4.8,4.,4.8,1.,4.8
1979-07-20 06:33:54.890 ,3,0,1.,4.8,5.,4.8,2.,4.8,5.,4.8
1979-07-20 06:33:59.690 ,3,0,0.,4.8,5.,4.8,3.,4.8,4.,4.8
1979-07-20 06:34:04.490 ,3,0,0.,4.8,0.,4.8,3.,4.8,5.,4.8